{"data":{"norad_id":49287,"epoch":"2026-09-19T16:38:22.399584Z","epoch_age_seconds":96817,"freshness":"FRESH","line1":"1 49287U 21090J   26262.69331481  .00000085  00000+0  17764-3 0  9995","line2":"2 49287  87.9142 255.5858 0002007  91.5136 268.6227 13.20773610242770","mean_motion":13.2077361,"eccentricity":0.0002007,"inclination_deg":87.9142,"raan_deg":255.5858,"arg_perigee_deg":91.5136,"mean_anomaly_deg":268.6227,"bstar":0.00017764,"rev_number":24277,"period_min":109.02701182832,"perigee_km":1180.2492426685,"apogee_km":1183.2837879395,"semimajor_km":7559.903515304,"source":"CELESTRAK","updated_at":"2026-09-20T09:00:44.670014Z"}}